STARLINK-2657, 48655

Orbit data source: Space-Track

STARLINK-2657, 48655 is a payload satellite owned by SpaceX/Seattle (US) in LEO that was launched on Wed, 26 May 2021 UTC via an FALCON 9 launch vehicle from the Air Force Eastern Test Range (AFETR). Payload-class satellites include a variety of spacecraft equipped with specific instruments for various scientific and technological missions. These include communications satellites like Starlink; space stations such as the ISS; scientific satellites like the Hubble; Earth observation satellites from companies like Planet Labs, Umbra, and HawkEye 360; GPS; miniature CubeSats for education and research; and military/defense satellites.

Loading next visibility...
Identifier
48655, 2021-044T
Orbit
LEO
Country
Flag of USUS
Related business
Manufacturer
SpaceX/Seattle
Mission
Operational Commercial Communications
Bus & Motor
STARLINK, Unknown motor
Mass
260 kg wet, ~248 kg dry
Launch date (UTC)
2021-05-26 (5 years ago)
Launch vehicle
FALCON 9
Launch site
Air Force Eastern Test Range (AFETR)
Object type
Payload
Rocket body
Debris
Shape & HBR
Box + 1 Pan, 10.1 m
Radar Cross Section
13.562 m², Large (>1 m²)

Expand to show TLE details & history
Last TLE update: 21 hours ago

TLE from 21 hours ago
0 STARLINK-2657
1 48655U 21044T   25348.81454651  .00002299  00000-0  17323-3 0  9996
2 48655  53.0547 142.6356 0001661  86.0981 274.0198 15.06389939250918
Epoch: 2025-12-14T19:32Z
TLE epoch observation values (Epoch: 2025-12-14T19:32:56.818Z)
Latitude
-0.00001°
Longitude
125.67679°
Altitude
548.041 km
Speed
7.589 km/s
True Right ascension
09h 30m 32s
True Declination
0° 00' 00"
Sunlit
Object was in full shadow at epoch
Visualization orbit readout
Latitude
Unknown
Longitude
Unknown
Altitude
Unknown
Speed
Unknown
Apparent Right ascension
Unknown
Apparent Declination
Unknown
Sunlit
N/A
Visualization observer readout
Local Sidereal Time
15:06:12
Azimuth
Unknown
Elevation
Unknown
Doppler factor
Unknown
Orbital elements
Apogee altitude
548.663 km
Perigee altitude
546.363 km
Semi-major axis
6,925.65 km
Eccentricity
0.00017
Inclination
53.0547°
RAAN
142.6356°
Arg. of periapsis
86.0981°
True anomaly
274.00081°
Mean anomaly
274.0198°
Eccentric anomaly
274.01031°
Mean motion
3.76576 °/min
Orbital period
95.6 mins
BSTAR
0.00017323
Loading maneuver chart data...
Computing Atmospheric mass density...
Loading historical data...
Loading historical data...
Loading historical data...
Loading historical data...
Loading historical data...
Loading historical data...
Loading historical data...

Documentation

Showing up to 5 results
|